Location: Campestrin
(46.4667°N, 11.7167°E)
Time: 09:32:33
(UTC+00:00)

MetOp-B - Pass Details

Date: 18 April 2021
Orbit: 819 x 822 km, 98.7° (Epoch: 06 May)

Event Time Altitude Azimuth Distance (km) Brightness Sun altitude
Exits shadow 19:52:04 25° 153° (SSE) 1,597 5.1 -17.1°
Maximum altitude 19:55:14 74° 73° (ENE) 856 4.1 -17.5°
Drops below altitude 10° 20:00:36 10° 349° (N) 2,428 7.3 -18.2°
Sets 20:02:57 0° 348° (NNW) 3,365 8.2 -18.5°
